Location: Darmstadt
(49.8706°N, 8.6494°E)
Time: 07:27:50
(UTC+01:00)

Cosmos 968 Rocket - Pass Details

Date: 31 October 2020
Orbit: 741 x 770 km, 74.0° (Epoch: 03 December)

Event Time Altitude Azimuth Distance (km) Brightness Sun altitude
Rises 17:54:55 0° 336° (NNW) 3,240 6.9 -8.7°
Reaches altitude 10° 17:57:18 10° 337° (NNW) 2,306 6.1 -9.1°
Maximum altitude 18:02:33 83° 66° (ENE) 769 3.4 -9.9°
Drops below altitude 10° 18:07:43 10° 155° (SSE) 2,270 5.8 -10.8°
Sets 18:10:03 0° 156° (SSE) 3,186 6.6 -11.1°
